Regional Weather Roundup
Issued by NWS Newport/Morehead, NC

Current Version | Previous Version | Graphics & Text | Print | Product List | Glossary Off
Versions: 1 2 3 4 5 6 7 8 9 10 11 12 13 14 15 16 17 18 19 20 21 22 23 24 25 26 27 28 29 30 31 32 33 34 35 36 37 38 39 40 41 42 43 44 45 46 47 48 49 50
000 ASUS42 KMHX 300125 RWRMHX WEATHER ROUNDUP FOR EASTERN NORTH CAROLINA NATIONAL WEATHER SERVICE NEWPORT/MOREHEAD CITY NC 900 PM EDT SAT AUG 29 2015 NOTE: "FAIR" INDICATES FEW OR NO CLOUDS BELOW 12,000 FEET WITH NO SIGNIFICANT WEATHER AND/OR OBSTRUCTIONS TO VISIBILITY NCZ015>017-031-032-045>047-102-103-300200- NORTH COAST CITY SKY/WX TMP DP RH WIND PRES REMARKS EDENTON CLOUDY 71 64 78 CALM 30.13S ELIZABETH CITY MOCLDY 74 65 73 NE9 30.13S KITTY HAWK CLOUDY 77 66 69 NE5 30.11S MANTEO CLOUDY 76 68 76 NE12 30.12S $$ NCZ045>047-081-094-103-104-300200- CENTRAL COAST CITY SKY/WX TMP DP RH WIND PRES REMARKS FRISCO MOCLDY 76 72 87 NE7 30.10R SWANQUARTER NOT AVBL $$ NCZ095-097-098-100-101-300200- SOUTHERN COAST CITY SKY/WX TMP DP RH WIND PRES REMARKS BEAUFORT PTCLDY 73 66 78 NE3 30.11R CEDAR ISLAND NOT AVBL JACKSONVILLE CLOUDY 77 63 61 NE7 30.12R PINEY ISLAND PTCLDY N/A N/A N/A N7 30.11R WILMINGTON CLOUDY 77 68 73 CALM 30.11R $$ NCZ011>013-027>030-043-044-078>080-089-090>093-098-300200- COASTAL PLAIN CITY SKY/WX TMP DP RH WIND PRES REMARKS AHOSKIE CLOUDY 70 63 79 CALM 30.15R CLINTON MOCLDY 72 67 84 CALM 30.13S ELIZABETHTOWN MOCLDY 74 63 68 CALM 30.13R GOLDSBORO CLOUDY 75 65 70 CALM 30.11S GREENVILLE CLOUDY 73 64 73 E3 30.15R HAVELOCK MOCLDY 76 63 64 NE5 30.13R KENANSVILLE N/A 69 65 86 CALM 30.13S KINSTON CLOUDY 72 66 83 CALM 30.14R NEW BERN MOCLDY 74 64 71 NE6 30.13R RICHLANDS CLOUDY 72 63 73 N5 30.13R ROCKY MOUNT CLOUDY 75 60 59 CALM 30.13R WASHINGTON CLOUDY 71 65 82 CALM 30.13S WHITEVILLE CLOUDY 74 66 76 CALM 30.12R $$ AMZ130-135-150-152-154-156-158-170-250-252-270-ANZ085-086-088-633-658-670-300200- MARINE OBSERVATIONS STATION/POSITION TIME TEMP WIND PRES WAVE SWELL AIR SEA DIR/SP/G HT/PER HT/PER (UTC) (F) (DEG/KT/KT) (MB) (FT/S) (FT/S) CHESAPEAKE LIGHT 0100 76 70/ 11/ 12 1021.0 64 E VA BEACH 0050 78 79 60/ 14/ 16 1019.6 5/11 3/11 DUCK NOT AVBL 2 E DUCK 0011 78 N/A 4/12 2/12 OREGON INLET NOT AVBL 13E OREGON INLT 0100 78 N/A 5/11 2/11 HATTERAS CG NOT AVBL DIAMOND BUOY 0050 79 82 30/ 17/ 19 1018.5 5/11 3/11 CAPE LOOKOUT 0100 78 30/ 11/ 14 1019.5 BEAUFORT LAB NOT AVBL 30 SE NEW RVR IN 0008 80 81 60/ 14/ 17 1019.6 30 SE NEW RVR IN 0025 82 N/A 5/11 2/11 27 SE WRIGHTSVLE 0100 77 82 70/ 10/ 14 N/A 5 SE WRIGHTSVLE NOT AVBL 225 S CAPE HAT 0050 83 84 210/ 2/ 2 1019.7 5/11 5/11 41 SE CHARLESTON 0050 81 85 60/ 12/ 16 1018.6 4/11 3/11 $$

USA.gov is the U.S. government's official web portal to all federal, state and local government web resources and services.